Terminal Aerodrome Forecast
Issued by NWS

Home | Current Version | Previous Version | Text Only | Print | Product List | Glossary Off
Versions: 1 2 3 4 5 6 7 8 9 10 11 12 13 14 15 16 17

000
FTUS43 KABR 211326 AAA
TAFMBG
TAF AMD
KMBG 211326Z 2113/2212 31017G24KT P6SM VCSH BKN150
     FM212000 30018G26KT P6SM BKN090
     FM220100 29010KT P6SM FEW150
     FM220900 VRB06KT P6SM SKC=

USA.gov is the U.S. government's official web portal to all federal, state and local government web resources and services.